Time,TemperatureF,DewpointF,PressureIn,WindDirection,WindDirectionDegrees,WindSpeedMPH,WindSpeedGustMPH,Humidity,HourlyPrecipIn,Conditions,Clouds,dailyrainin,SoftwareType,DateUTC
2013-03-08 00:00:00,32.0,29.7,30.41,WSW,252,0.0,0.0,91,0.00,,,0.01,Wunderground v.1.15,2013-03-08 05:00:00,
2013-03-08 00:01:00,32.0,29.7,30.41,WSW,250,0.0,0.0,91,0.00,,,0.00,Wunderground v.1.15,2013-03-08 05:01:00,
2013-03-08 00:04:00,31.9,29.8,30.41,WSW,250,0.0,0.0,92,0.00,,,0.00,Wunderground v.1.15,2013-03-08 05:04:00,
2013-03-08 00:08:00,31.8,29.7,30.41,WSW,250,0.0,0.0,92,0.00,,,0.00,Wunderground v.1.15,2013-03-08 05:08:00,
2013-03-08 00:14:00,31.7,29.6,30.40,WSW,257,0.0,1.0,92,0.00,,,0.00,Wunderground v.1.15,2013-03-08 05:14:00,
2013-03-08 00:19:00,31.7,29.6,30.40,WSW,257,0.0,0.0,92,0.00,,,0.00,Wunderground v.1.15,2013-03-08 05:19:00,
2013-03-08 00:25:00,31.6,29.5,30.40,SE,136,0.0,0.0,92,0.00,,,0.00,Wunderground v.1.15,2013-03-08 05:25:00,
2013-03-08 00:31:00,31.4,29.6,30.40,SE,136,0.0,0.0,93,0.00,,,0.00,Wunderground v.1.15,2013-03-08 05:31:00,
2013-03-08 00:36:00,31.3,29.5,30.40,SE,136,0.0,0.0,93,0.00,,,0.00,Wunderground v.1.15,2013-03-08 05:36:00,
2013-03-08 00:41:00,31.1,29.3,30.40,SE,136,0.0,0.0,93,0.00,,,0.00,Wunderground v.1.15,2013-03-08 05:41:00,
2013-03-08 00:47:00,31.0,29.2,30.40,SE,136,0.0,0.0,93,0.00,,,0.00,Wunderground v.1.15,2013-03-08 05:47:00,
2013-03-08 00:53:00,30.8,29.0,30.40,SE,136,0.0,0.0,93,0.00,,,0.00,Wunderground v.1.15,2013-03-08 05:53:00,
2013-03-08 00:59:00,30.8,29.0,30.40,SE,136,0.0,0.0,93,0.00,,,0.00,Wunderground v.1.15,2013-03-08 05:59:00,
2013-03-08 01:05:00,30.8,29.3,30.40,SE,136,0.0,0.0,94,0.00,,,0.00,Wunderground v.1.15,2013-03-08 06:05:00,
2013-03-08 01:10:00,30.8,29.3,30.40,SE,136,0.0,0.0,94,0.00,,,0.00,Wunderground v.1.15,2013-03-08 06:10:00,
2013-03-08 01:16:00,31.0,28.9,30.40,SE,136,0.0,0.0,92,0.00,,,0.00,Wunderground v.1.15,2013-03-08 06:16:00,
2013-03-08 01:22:00,31.0,28.9,30.41,West,276,0.0,0.0,92,0.00,,,0.00,Wunderground v.1.15,2013-03-08 06:22:00,
2013-03-08 01:28:00,30.9,29.1,30.41,West,276,0.0,0.0,93,0.00,,,0.00,Wunderground v.1.15,2013-03-08 06:28:00,
2013-03-08 01:34:00,30.6,28.8,30.41,West,276,0.0,0.0,93,0.00,,,0.00,Wunderground v.1.15,2013-03-08 06:34:00,
2013-03-08 01:40:00,30.2,28.4,30.41,West,276,0.0,0.0,93,0.00,,,0.00,Wunderground v.1.15,2013-03-08 06:40:00,
2013-03-08 01:46:00,30.0,28.2,30.41,West,276,0.0,0.0,93,0.00,,,0.00,Wunderground v.1.15,2013-03-08 06:46:00,
2013-03-08 01:52:00,29.6,28.1,30.41,West,276,0.0,0.0,94,0.00,,,0.00,Wunderground v.1.15,2013-03-08 06:52:00,
2013-03-08 01:58:00,29.4,27.9,30.42,West,276,0.0,0.0,94,0.00,,,0.00,Wunderground v.1.15,2013-03-08 06:58:00,
2013-03-08 02:03:00,29.1,27.6,30.41,West,276,0.0,0.0,94,0.00,,,0.00,Wunderground v.1.15,2013-03-08 07:03:00,
2013-03-08 02:09:00,29.0,27.7,30.42,West,276,0.0,0.0,95,0.00,,,0.00,Wunderground v.1.15,2013-03-08 07:09:00,
2013-03-08 02:15:00,28.9,27.6,30.42,West,276,0.0,0.0,95,0.00,,,0.00,Wunderground v.1.15,2013-03-08 07:15:00,
2013-03-08 02:21:00,28.9,27.6,30.42,West,276,0.0,0.0,95,0.00,,,0.00,Wunderground v.1.15,2013-03-08 07:21:00,
2013-03-08 02:26:00,29.0,27.7,30.42,West,276,0.0,0.0,95,0.00,,,0.00,Wunderground v.1.15,2013-03-08 07:26:00,
2013-03-08 02:32:00,29.1,27.8,30.41,West,276,0.0,0.0,95,0.00,,,0.00,Wunderground v.1.15,2013-03-08 07:32:00,
2013-03-08 02:38:00,29.0,27.7,30.42,West,276,0.0,0.0,95,0.00,,,0.00,Wunderground v.1.15,2013-03-08 07:38:00,
2013-03-08 02:43:00,28.9,27.6,30.41,West,276,0.0,0.0,95,0.00,,,0.00,Wunderground v.1.15,2013-03-08 07:43:00,
2013-03-08 02:49:00,28.8,27.5,30.42,West,276,0.0,0.0,95,0.00,,,0.00,Wunderground v.1.15,2013-03-08 07:49:00,
2013-03-08 02:55:00,28.7,27.4,30.42,West,276,0.0,0.0,95,0.00,,,0.00,Wunderground v.1.15,2013-03-08 07:55:00,
2013-03-08 03:00:00,28.9,27.6,30.42,West,276,0.0,0.0,95,0.00,,,0.00,Wunderground v.1.15,2013-03-08 08:00:00,
2013-03-08 03:06:00,29.1,27.8,30.42,West,276,0.0,0.0,95,0.00,,,0.00,Wunderground v.1.15,2013-03-08 08:06:00,
2013-03-08 03:11:00,29.3,28.0,30.42,West,276,0.0,0.0,95,0.00,,,0.00,Wunderground v.1.15,2013-03-08 08:11:00,
2013-03-08 03:17:00,29.6,28.1,30.42,West,276,0.0,1.0,94,0.00,,,0.00,Wunderground v.1.15,2013-03-08 08:17:00,
2013-03-08 03:22:00,29.8,28.0,30.41,West,276,0.0,0.0,93,0.00,,,0.00,Wunderground v.1.15,2013-03-08 08:22:00,
2013-03-08 03:28:00,30.0,28.0,30.41,West,276,0.0,0.0,92,0.00,,,0.00,Wunderground v.1.15,2013-03-08 08:28:00,
2013-03-08 03:34:00,29.9,27.9,30.41,West,276,0.0,0.0,92,0.00,,,0.00,Wunderground v.1.15,2013-03-08 08:34:00,
2013-03-08 03:40:00,30.2,27.6,30.41,NW,316,0.0,1.0,90,0.00,,,0.00,Wunderground v.1.15,2013-03-08 08:40:00,
2013-03-08 03:46:00,30.6,27.7,30.41,NW,323,1.0,2.0,89,0.00,,,0.00,Wunderground v.1.15,2013-03-08 08:46:00,
2013-03-08 03:51:00,30.7,27.8,30.41,WNW,301,1.0,2.0,89,0.00,,,0.00,Wunderground v.1.15,2013-03-08 08:51:00,
2013-03-08 03:57:00,30.6,27.7,30.41,NW,316,2.0,3.0,89,0.00,,,0.00,Wunderground v.1.15,2013-03-08 08:57:00,
2013-03-08 04:03:00,30.7,27.8,30.41,NW,321,1.0,2.0,89,0.00,,,0.00,Wunderground v.1.15,2013-03-08 09:03:00,
2013-03-08 04:08:00,30.6,27.7,30.40,NW,326,1.0,2.0,89,0.00,,,0.00,Wunderground v.1.15,2013-03-08 09:08:00,
2013-03-08 04:14:00,30.4,27.5,30.41,NNW,328,0.0,2.0,89,0.00,,,0.00,Wunderground v.1.15,2013-03-08 09:14:00,
2013-03-08 04:20:00,30.3,27.4,30.40,NNW,333,1.0,1.0,89,0.00,,,0.00,Wunderground v.1.15,2013-03-08 09:20:00,
2013-03-08 04:25:00,30.1,27.5,30.41,NW,316,1.0,1.0,90,0.00,,,0.00,Wunderground v.1.15,2013-03-08 09:25:00,
2013-03-08 04:31:00,30.2,27.6,30.41,NW,315,1.0,1.0,90,0.00,,,0.00,Wunderground v.1.15,2013-03-08 09:31:00,
2013-03-08 04:37:00,30.0,27.4,30.41,NW,316,1.0,1.0,90,0.00,,,0.00,Wunderground v.1.15,2013-03-08 09:37:00,
2013-03-08 04:43:00,29.8,27.2,30.41,NW,319,0.0,1.0,90,0.00,,,0.00,Wunderground v.1.15,2013-03-08 09:43:00,
2013-03-08 04:49:00,29.8,27.2,30.41,WNW,298,0.0,1.0,90,0.00,,,0.00,Wunderground v.1.15,2013-03-08 09:49:00,
2013-03-08 04:55:00,29.6,27.0,30.41,NW,323,0.0,1.0,90,0.00,,,0.00,Wunderground v.1.15,2013-03-08 09:55:00,
2013-03-08 05:00:00,29.4,27.1,30.42,NW,323,0.0,0.0,91,0.00,,,0.00,Wunderground v.1.15,2013-03-08 10:00:00,
2013-03-08 05:06:00,29.3,27.0,30.42,NW,323,0.0,1.0,91,0.00,,,0.00,Wunderground v.1.15,2013-03-08 10:06:00,
2013-03-08 05:11:00,29.2,26.9,30.42,NW,323,0.0,0.0,91,0.00,,,0.00,Wunderground v.1.15,2013-03-08 10:11:00,
2013-03-08 05:17:00,29.0,26.7,30.42,NW,323,0.0,0.0,91,0.00,,,0.00,Wunderground v.1.15,2013-03-08 10:17:00,
2013-03-08 05:23:00,29.0,26.7,30.42,NW,310,0.0,1.0,91,0.00,,,0.00,Wunderground v.1.15,2013-03-08 10:23:00,
2013-03-08 05:29:00,28.9,26.6,30.43,WNW,290,1.0,1.0,91,0.00,,,0.00,Wunderground v.1.15,2013-03-08 10:29:00,
2013-03-08 05:35:00,29.0,26.7,30.43,NW,308,1.0,1.0,91,0.00,,,0.00,Wunderground v.1.15,2013-03-08 10:35:00,
2013-03-08 05:41:00,28.8,26.5,30.43,NW,307,0.0,0.0,91,0.00,,,0.00,Wunderground v.1.15,2013-03-08 10:41:00,
2013-03-08 05:47:00,28.6,26.3,30.43,NW,307,0.0,1.0,91,0.00,,,0.00,Wunderground v.1.15,2013-03-08 10:47:00,
2013-03-08 05:53:00,28.3,26.3,30.44,WNW,285,0.0,0.0,92,0.00,,,0.00,Wunderground v.1.15,2013-03-08 10:53:00,
2013-03-08 05:59:00,28.3,26.3,30.44,NW,304,0.0,1.0,92,0.00,,,0.00,Wunderground v.1.15,2013-03-08 10:59:00,
2013-03-08 06:04:00,28.4,26.4,30.44,WNW,287,1.0,1.0,92,0.00,,,0.00,Wunderground v.1.15,2013-03-08 11:04:00,
2013-03-08 06:10:00,28.1,26.1,30.45,NW,310,0.0,0.0,92,0.00,,,0.00,Wunderground v.1.15,2013-03-08 11:10:00,
2013-03-08 06:15:00,28.2,26.2,30.45,NW,310,0.0,1.0,92,0.00,,,0.00,Wunderground v.1.15,2013-03-08 11:15:00,
2013-03-08 06:21:00,28.2,26.2,30.45,NW,307,1.0,1.0,92,0.00,,,0.00,Wunderground v.1.15,2013-03-08 11:21:00,
2013-03-08 06:27:00,28.1,25.8,30.46,WNW,282,0.0,1.0,91,0.00,,,0.00,Wunderground v.1.15,2013-03-08 11:27:00,
2013-03-08 06:33:00,27.7,25.7,30.46,WNW,288,0.0,1.0,92,0.00,,,0.00,Wunderground v.1.15,2013-03-08 11:33:00,
2013-03-08 06:38:00,27.6,25.6,30.47,WNW,287,1.0,2.0,92,0.00,,,0.00,Wunderground v.1.15,2013-03-08 11:38:00,
2013-03-08 06:44:00,27.4,25.4,30.47,WNW,284,0.0,1.0,92,0.00,,,0.00,Wunderground v.1.15,2013-03-08 11:44:00,
2013-03-08 06:50:00,27.3,25.5,30.47,WNW,285,0.0,0.0,93,0.00,,,0.00,Wunderground v.1.15,2013-03-08 11:50:00,
2013-03-08 06:55:00,27.4,25.6,30.47,WNW,285,1.0,1.0,93,0.00,,,0.00,Wunderground v.1.15,2013-03-08 11:55:00,
2013-03-08 07:00:00,27.5,25.7,30.48,WNW,297,1.0,1.0,93,0.00,,,0.00,Wunderground v.1.15,2013-03-08 12:00:00,
2013-03-08 07:06:00,27.5,25.5,30.48,North,1,0.0,1.0,92,0.00,,,0.00,Wunderground v.1.15,2013-03-08 12:06:00,
2013-03-08 07:12:00,27.6,25.6,30.48,NW,319,0.0,1.0,92,0.00,,,0.00,Wunderground v.1.15,2013-03-08 12:12:00,
2013-03-08 07:18:00,27.8,25.8,30.48,NW,321,0.0,1.0,92,0.00,,,0.00,Wunderground v.1.15,2013-03-08 12:18:00,
2013-03-08 07:23:00,27.9,25.9,30.48,NW,321,0.0,0.0,92,0.00,,,0.00,Wunderground v.1.15,2013-03-08 12:23:00,
2013-03-08 07:29:00,28.1,25.8,30.48,NW,325,0.0,1.0,91,0.00,,,0.00,Wunderground v.1.15,2013-03-08 12:29:00,
2013-03-08 07:35:00,28.4,26.1,30.48,NNW,329,0.0,1.0,91,0.00,,,0.00,Wunderground v.1.15,2013-03-08 12:35:00,
2013-03-08 07:41:00,28.7,26.4,30.48,NNW,342,1.0,1.0,91,0.00,,,0.00,Wunderground v.1.15,2013-03-08 12:41:00,
2013-03-08 07:46:00,29.0,26.4,30.48,NNW,347,1.0,2.0,90,0.00,,,0.00,Wunderground v.1.15,2013-03-08 12:46:00,
2013-03-08 07:52:00,29.2,26.6,30.48,North,353,2.0,3.0,90,0.00,,,0.00,Wunderground v.1.15,2013-03-08 12:52:00,
2013-03-08 07:58:00,29.6,26.8,30.48,NNE,12,2.0,5.0,89,0.00,,,0.00,Wunderground v.1.15,2013-03-08 12:58:00,
2013-03-08 08:03:00,29.9,27.1,30.48,North,9,3.0,4.0,89,0.00,,,0.00,Wunderground v.1.15,2013-03-08 13:03:00,
2013-03-08 08:09:00,30.2,27.1,30.48,NNE,23,2.0,5.0,88,0.00,,,0.00,Wunderground v.1.15,2013-03-08 13:09:00,
2013-03-08 08:15:00,30.7,27.0,30.48,NNW,336,3.0,4.0,86,0.00,,,0.00,Wunderground v.1.15,2013-03-08 13:15:00,
2013-03-08 08:21:00,31.0,27.0,30.49,NNE,12,4.0,4.0,85,0.00,,,0.00,Wunderground v.1.15,2013-03-08 13:21:00,
2013-03-08 08:27:00,31.4,27.1,30.48,North,11,4.0,6.0,84,0.00,,,0.00,Wunderground v.1.15,2013-03-08 13:27:00,
2013-03-08 08:32:00,31.8,27.5,30.48,North,6,4.0,5.0,84,0.00,,,0.00,Wunderground v.1.15,2013-03-08 13:32:00,
2013-03-08 08:38:00,32.0,27.7,30.49,North,6,4.0,5.0,84,0.00,,,0.00,Wunderground v.1.15,2013-03-08 13:38:00,
2013-03-08 08:44:00,32.2,27.6,30.49,NNE,24,4.0,8.0,83,0.00,,,0.00,Wunderground v.1.15,2013-03-08 13:44:00,
2013-03-08 08:50:00,32.5,27.9,30.49,NNE,24,4.0,5.0,83,0.00,,,0.00,Wunderground v.1.15,2013-03-08 13:50:00,
2013-03-08 08:56:00,32.9,28.3,30.49,NNE,32,3.0,5.0,83,0.00,,,0.00,Wunderground v.1.15,2013-03-08 13:56:00,
2013-03-08 09:02:00,33.3,28.7,30.49,NNE,30,3.0,4.0,83,0.00,,,0.00,Wunderground v.1.15,2013-03-08 14:02:00,
2013-03-08 09:08:00,33.6,29.0,30.49,NNE,27,3.0,5.0,83,0.00,,,0.00,Wunderground v.1.15,2013-03-08 14:08:00,
2013-03-08 09:13:00,33.9,29.0,30.50,NE,53,3.0,6.0,82,0.00,,,0.00,Wunderground v.1.15,2013-03-08 14:13:00,
2013-03-08 09:19:00,34.0,29.1,30.50,East,82,4.0,6.0,82,0.00,,,0.00,Wunderground v.1.15,2013-03-08 14:19:00,
2013-03-08 09:25:00,34.4,29.5,30.50,NNE,27,3.0,4.0,82,0.00,,,0.00,Wunderground v.1.15,2013-03-08 14:25:00,
2013-03-08 09:31:00,34.7,29.5,30.50,ENE,61,2.0,2.0,81,0.00,,,0.00,Wunderground v.1.15,2013-03-08 14:31:00,
2013-03-08 09:37:00,34.9,29.4,30.50,ENE,66,4.0,7.0,80,0.00,,,0.00,Wunderground v.1.15,2013-03-08 14:37:00,
2013-03-08 09:43:00,35.1,29.6,30.49,NE,56,5.0,6.0,80,0.00,,,0.00,Wunderground v.1.15,2013-03-08 14:43:00,
2013-03-08 09:49:00,35.1,29.6,30.49,ENE,59,5.0,6.0,80,0.00,,,0.00,Wunderground v.1.15,2013-03-08 14:49:00,
2013-03-08 09:54:00,35.3,30.1,30.49,ENE,75,5.0,5.0,81,0.00,,,0.00,Wunderground v.1.15,2013-03-08 14:54:00,
2013-03-08 10:00:00,35.6,29.7,30.49,ENE,65,5.0,6.0,79,0.00,,,0.00,Wunderground v.1.15,2013-03-08 15:00:00,
2013-03-08 10:06:00,35.7,29.8,30.49,East,92,5.0,9.0,79,0.00,,,0.00,Wunderground v.1.15,2013-03-08 15:06:00,
2013-03-08 10:12:00,36.0,30.4,30.49,ESE,113,6.0,8.0,80,0.00,,,0.00,Wunderground v.1.15,2013-03-08 15:12:00,
2013-03-08 10:18:00,36.0,29.5,30.49,ENE,77,5.0,8.0,77,0.00,,,0.00,Wunderground v.1.15,2013-03-08 15:18:00,
2013-03-08 10:23:00,36.8,29.9,30.49,ENE,58,5.0,8.0,76,0.00,,,0.00,Wunderground v.1.15,2013-03-08 15:23:00,
2013-03-08 10:29:00,37.0,29.5,30.49,NE,46,6.0,8.0,74,0.00,,,0.00,Wunderground v.1.15,2013-03-08 15:29:00,
2013-03-08 10:34:00,36.9,30.0,30.48,ENE,68,6.0,7.0,76,0.00,,,0.00,Wunderground v.1.15,2013-03-08 15:34:00,
2013-03-08 10:40:00,37.6,31.0,30.48,East,93,5.0,5.0,77,0.00,,,0.00,Wunderground v.1.15,2013-03-08 15:40:00,
2013-03-08 10:46:00,37.3,28.1,30.48,ENE,70,6.0,9.0,69,0.00,,,0.00,Wunderground v.1.15,2013-03-08 15:46:00,
2013-03-08 10:52:00,36.7,28.2,30.49,East,101,6.0,8.0,71,0.00,,,0.00,Wunderground v.1.15,2013-03-08 15:52:00,
2013-03-08 10:58:00,36.5,28.7,30.49,NNE,32,5.0,9.0,73,0.00,,,0.00,Wunderground v.1.15,2013-03-08 15:58:00,
2013-03-08 11:04:00,36.5,28.0,30.49,North,351,4.0,7.0,71,0.00,,,0.00,Wunderground v.1.15,2013-03-08 16:04:00,
2013-03-08 11:10:00,37.3,29.1,30.48,ENE,71,4.0,6.0,72,0.00,,,0.00,Wunderground v.1.15,2013-03-08 16:10:00,
2013-03-08 11:16:00,37.6,30.4,30.48,ENE,61,4.0,7.0,75,0.00,,,0.00,Wunderground v.1.15,2013-03-08 16:16:00,
2013-03-08 11:22:00,38.6,30.4,30.48,ENE,71,4.0,7.0,72,0.00,,,0.00,Wunderground v.1.15,2013-03-08 16:22:00,
2013-03-08 11:27:00,38.5,30.3,30.48,ENE,65,5.0,8.0,72,0.00,,,0.00,Wunderground v.1.15,2013-03-08 16:27:00,
2013-03-08 11:33:00,38.5,29.9,30.48,ENE,64,6.0,6.0,71,0.00,,,0.00,Wunderground v.1.15,2013-03-08 16:33:00,
2013-03-08 11:39:00,38.9,30.6,30.47,SE,136,5.0,7.0,72,0.00,,,0.00,Wunderground v.1.15,2013-03-08 16:39:00,
2013-03-08 11:45:00,38.9,29.2,30.47,NE,37,6.0,10.0,68,0.00,,,0.00,Wunderground v.1.15,2013-03-08 16:45:00,
2013-03-08 11:51:00,38.9,29.6,30.47,East,82,5.0,5.0,69,0.00,,,0.00,Wunderground v.1.15,2013-03-08 16:51:00,
2013-03-08 11:57:00,39.0,29.7,30.47,East,84,5.0,9.0,69,0.00,,,0.00,Wunderground v.1.15,2013-03-08 16:57:00,
2013-03-08 12:02:00,39.3,29.6,30.47,ENE,57,6.0,9.0,68,0.00,,,0.00,Wunderground v.1.15,2013-03-08 17:02:00,
2013-03-08 12:08:00,39.3,29.3,30.47,East,89,6.0,9.0,67,0.00,,,0.00,Wunderground v.1.15,2013-03-08 17:08:00,
2013-03-08 12:13:00,39.3,29.6,30.47,ENE,68,7.0,9.0,68,0.00,,,0.00,Wunderground v.1.15,2013-03-08 17:13:00,
2013-03-08 12:19:00,39.9,30.9,30.47,ENE,63,6.0,9.0,70,0.00,,,0.00,Wunderground v.1.15,2013-03-08 17:19:00,
2013-03-08 12:25:00,40.0,30.3,30.47,East,83,6.0,8.0,68,0.00,,,0.00,Wunderground v.1.15,2013-03-08 17:25:00,
2013-03-08 12:30:00,40.1,30.4,30.47,East,82,5.0,5.0,68,0.00,,,0.00,Wunderground v.1.15,2013-03-08 17:30:00,
2013-03-08 12:36:00,40.9,30.0,30.47,NE,41,5.0,6.0,65,0.00,,,0.00,Wunderground v.1.15,2013-03-08 17:36:00,
2013-03-08 12:42:00,40.8,29.9,30.47,East,84,4.0,5.0,65,0.00,,,0.00,Wunderground v.1.15,2013-03-08 17:42:00,
2013-03-08 12:48:00,41.5,32.4,30.47,ENE,60,4.0,7.0,70,0.00,,,0.00,Wunderground v.1.15,2013-03-08 17:48:00,
2013-03-08 12:53:00,41.3,30.0,30.47,East,92,5.0,5.0,64,0.00,,,0.00,Wunderground v.1.15,2013-03-08 17:53:00,
2013-03-08 12:59:00,41.1,30.2,30.47,NNE,26,4.0,6.0,65,0.00,,,0.00,Wunderground v.1.15,2013-03-08 17:59:00,
2013-03-08 13:04:00,41.3,31.2,30.47,ENE,58,4.0,5.0,67,0.00,,,0.00,Wunderground v.1.15,2013-03-08 18:04:00,
2013-03-08 13:10:00,41.8,30.9,30.46,SE,127,4.0,4.0,65,0.00,,,0.00,Wunderground v.1.15,2013-03-08 18:10:00,
2013-03-08 13:16:00,41.8,31.3,30.46,NE,34,2.0,4.0,66,0.00,,,0.00,Wunderground v.1.15,2013-03-08 18:16:00,
2013-03-08 13:22:00,41.2,30.3,30.46,ENE,69,3.0,3.0,65,0.00,,,0.00,Wunderground v.1.15,2013-03-08 18:22:00,
2013-03-08 13:27:00,41.6,30.3,30.46,East,89,3.0,7.0,64,0.00,,,0.00,Wunderground v.1.15,2013-03-08 18:27:00,
2013-03-08 13:33:00,41.7,30.4,30.46,NNW,333,3.0,5.0,64,0.00,,,0.00,Wunderground v.1.15,2013-03-08 18:33:00,
2013-03-08 13:39:00,41.7,30.0,30.46,ENE,65,3.0,5.0,63,0.00,,,0.00,Wunderground v.1.15,2013-03-08 18:39:00,
2013-03-08 13:45:00,41.7,30.0,30.45,ENE,65,3.0,5.0,63,0.00,,,0.00,Wunderground v.1.15,2013-03-08 18:45:00,
2013-03-08 13:50:00,42.4,31.1,30.45,NNW,343,3.0,3.0,64,0.00,,,0.00,Wunderground v.1.15,2013-03-08 18:50:00,
2013-03-08 13:56:00,42.9,31.6,30.45,NW,307,3.0,7.0,64,0.00,,,0.00,Wunderground v.1.15,2013-03-08 18:56:00,
2013-03-08 14:01:00,42.9,30.8,30.45,North,11,3.0,4.0,62,0.00,,,0.00,Wunderground v.1.15,2013-03-08 19:01:00,
2013-03-08 14:07:00,42.5,30.4,30.45,NNE,30,2.0,4.0,62,0.00,,,0.00,Wunderground v.1.15,2013-03-08 19:07:00,
2013-03-08 14:13:00,42.5,30.0,30.44,WNW,297,3.0,5.0,61,0.00,,,0.00,Wunderground v.1.15,2013-03-08 19:13:00,
2013-03-08 14:18:00,42.7,31.0,30.44,West,270,4.0,5.0,63,0.00,,,0.00,Wunderground v.1.15,2013-03-08 19:18:00,
2013-03-08 14:24:00,43.1,30.6,30.44,NNW,342,3.0,5.0,61,0.00,,,0.00,Wunderground v.1.15,2013-03-08 19:24:00,
2013-03-08 14:30:00,43.5,30.9,30.44,East,79,3.0,3.0,61,0.00,,,0.00,Wunderground v.1.15,2013-03-08 19:30:00,
2013-03-08 14:35:00,43.7,30.3,30.44,West,281,3.0,7.0,59,0.00,,,0.00,Wunderground v.1.15,2013-03-08 19:35:00,
2013-03-08 14:41:00,43.6,31.4,30.44,NNE,12,3.0,5.0,62,0.00,,,0.00,Wunderground v.1.15,2013-03-08 19:41:00,
2013-03-08 14:47:00,43.9,31.3,30.44,East,79,2.0,5.0,61,0.00,,,0.00,Wunderground v.1.15,2013-03-08 19:47:00,
2013-03-08 14:53:00,43.9,30.5,30.43,ESE,114,3.0,4.0,59,0.00,,,0.00,Wunderground v.1.15,2013-03-08 19:53:00,
2013-03-08 14:59:00,44.1,30.3,30.43,WSW,240,2.0,4.0,58,0.00,,,0.00,Wunderground v.1.15,2013-03-08 19:59:00,
2013-03-08 15:05:00,44.5,31.1,30.43,North,9,2.0,7.0,59,0.00,,,0.00,Wunderground v.1.15,2013-03-08 20:05:00,
2013-03-08 15:10:00,44.5,31.5,30.43,NW,308,4.0,4.0,60,0.00,,,0.00,Wunderground v.1.15,2013-03-08 20:10:00,
2013-03-08 15:16:00,44.8,31.8,30.43,WNW,298,4.0,7.0,60,0.00,,,0.00,Wunderground v.1.15,2013-03-08 20:16:00,
2013-03-08 15:22:00,44.8,31.3,30.43,North,354,3.0,6.0,59,0.00,,,0.00,Wunderground v.1.15,2013-03-08 20:22:00,
2013-03-08 15:28:00,44.5,30.6,30.43,WNW,289,4.0,6.0,58,0.00,,,0.00,Wunderground v.1.15,2013-03-08 20:28:00,
2013-03-08 15:34:00,44.4,30.1,30.43,North,352,3.0,4.0,57,0.00,,,0.00,Wunderground v.1.15,2013-03-08 20:34:00,
2013-03-08 15:40:00,44.4,29.7,30.43,ENE,70,3.0,3.0,56,0.00,,,0.00,Wunderground v.1.15,2013-03-08 20:40:00,
2013-03-08 15:46:00,45.0,32.3,30.43,NNE,21,2.0,5.0,61,0.00,,,0.00,Wunderground v.1.15,2013-03-08 20:46:00,
2013-03-08 15:53:00,44.9,31.8,30.41,NNW,340,5.0,6.0,60,0.00,,,0.00,Wunderground v.1.15,2013-03-08 20:53:00,
2013-03-08 15:59:00,44.8,31.8,30.42,NW,323,4.0,6.0,60,0.00,,,0.00,Wunderground v.1.15,2013-03-08 20:59:00,
2013-03-08 16:05:00,44.8,30.9,30.41,ENE,66,4.0,6.0,58,0.00,,,0.00,Wunderground v.1.15,2013-03-08 21:05:00,
2013-03-08 16:11:00,45.1,31.6,30.41,NNW,336,4.0,4.0,59,0.00,,,0.00,Wunderground v.1.15,2013-03-08 21:11:00,
2013-03-08 16:17:00,44.8,30.9,30.41,ENE,77,4.0,6.0,58,0.00,,,0.00,Wunderground v.1.15,2013-03-08 21:17:00,
2013-03-08 16:22:00,44.9,31.0,30.41,ENE,63,4.0,5.0,58,0.00,,,0.00,Wunderground v.1.15,2013-03-08 21:22:00,
2013-03-08 16:28:00,45.0,31.5,30.41,ENE,60,4.0,6.0,59,0.00,,,0.00,Wunderground v.1.15,2013-03-08 21:28:00,
2013-03-08 16:34:00,44.8,31.3,30.40,NNE,33,4.0,7.0,59,0.00,,,0.00,Wunderground v.1.15,2013-03-08 21:34:00,
2013-03-08 16:40:00,44.5,31.1,30.40,NE,36,4.0,4.0,59,0.00,,,0.00,Wunderground v.1.15,2013-03-08 21:40:00,
2013-03-08 16:46:00,44.7,31.2,30.40,NE,55,5.0,7.0,59,0.00,,,0.00,Wunderground v.1.15,2013-03-08 21:46:00,
2013-03-08 16:51:00,44.9,31.8,30.40,NE,46,4.0,5.0,60,0.00,,,0.00,Wunderground v.1.15,2013-03-08 21:51:00,
2013-03-08 16:57:00,44.8,31.3,30.40,North,360,3.0,5.0,59,0.00,,,0.00,Wunderground v.1.15,2013-03-08 21:57:00,
2013-03-08 17:03:00,44.6,31.1,30.40,ENE,68,4.0,4.0,59,0.00,,,0.00,Wunderground v.1.15,2013-03-08 22:03:00,
2013-03-08 17:09:00,44.8,31.8,30.40,NE,56,3.0,4.0,60,0.00,,,0.00,Wunderground v.1.15,2013-03-08 22:09:00,
2013-03-08 17:14:00,44.8,31.8,30.40,NNE,23,3.0,7.0,60,0.00,,,0.00,Wunderground v.1.15,2013-03-08 22:14:00,
2013-03-08 17:20:00,44.7,31.2,30.40,North,352,4.0,5.0,59,0.00,,,0.00,Wunderground v.1.15,2013-03-08 22:20:00,
2013-03-08 17:26:00,44.9,31.8,30.39,NNW,330,3.0,5.0,60,0.00,,,0.00,Wunderground v.1.15,2013-03-08 22:26:00,
2013-03-08 17:32:00,44.7,31.2,30.39,NNE,18,3.0,6.0,59,0.00,,,0.00,Wunderground v.1.15,2013-03-08 22:32:00,
2013-03-08 17:38:00,44.5,31.5,30.39,NE,46,3.0,6.0,60,0.00,,,0.00,Wunderground v.1.15,2013-03-08 22:38:00,
2013-03-08 17:43:00,44.3,31.3,30.39,ENE,57,3.0,4.0,60,0.00,,,0.00,Wunderground v.1.15,2013-03-08 22:43:00,
2013-03-08 17:49:00,44.0,31.4,30.39,NNW,341,3.0,4.0,61,0.00,,,0.00,Wunderground v.1.15,2013-03-08 22:49:00,
2013-03-08 17:55:00,43.7,30.7,30.39,ENE,67,3.0,4.0,60,0.00,,,0.00,Wunderground v.1.15,2013-03-08 22:55:00,
2013-03-08 18:00:00,43.5,30.5,30.39,NNE,19,3.0,3.0,60,0.00,,,0.00,Wunderground v.1.15,2013-03-08 23:00:00,
2013-03-08 18:06:00,43.3,30.7,30.40,North,9,2.0,5.0,61,0.00,,,0.00,Wunderground v.1.15,2013-03-08 23:06:00,
2013-03-08 18:12:00,43.0,30.9,30.40,NNE,15,3.0,4.0,62,0.00,,,0.00,Wunderground v.1.15,2013-03-08 23:12:00,
2013-03-08 18:18:00,42.6,30.9,30.40,North,6,3.0,4.0,63,0.00,,,0.00,Wunderground v.1.15,2013-03-08 23:18:00,
2013-03-08 18:24:00,42.3,31.0,30.40,NNW,347,3.0,3.0,64,0.00,,,0.00,Wunderground v.1.15,2013-03-08 23:24:00,
2013-03-08 18:29:00,42.0,31.1,30.40,NNW,345,2.0,3.0,65,0.00,,,0.00,Wunderground v.1.15,2013-03-08 23:29:00,
2013-03-08 18:35:00,41.5,31.0,30.40,North,354,1.0,2.0,66,0.00,,,0.00,Wunderground v.1.15,2013-03-08 23:35:00,
2013-03-08 18:40:00,41.1,31.0,30.39,North,7,1.0,1.0,67,0.00,,,0.00,Wunderground v.1.15,2013-03-08 23:40:00,
2013-03-08 18:46:00,40.6,30.9,30.40,NW,319,1.0,2.0,68,0.00,,,0.00,Wunderground v.1.15,2013-03-08 23:46:00,
2013-03-08 18:52:00,40.1,30.7,30.40,North,349,0.0,1.0,69,0.00,,,0.00,Wunderground v.1.15,2013-03-08 23:52:00,
2013-03-08 18:58:00,39.6,30.6,30.40,NW,321,0.0,1.0,70,0.00,,,0.00,Wunderground v.1.15,2013-03-08 23:58:00,
2013-03-08 19:04:00,39.4,30.4,30.40,NNW,334,0.0,1.0,70,0.00,,,0.00,Wunderground v.1.15,2013-03-09 00:04:00,
2013-03-08 19:09:00,39.2,30.6,30.40,NNE,20,1.0,2.0,71,0.00,,,0.00,Wunderground v.1.15,2013-03-09 00:09:00,
2013-03-08 19:15:00,39.0,30.4,30.40,NNW,347,1.0,2.0,71,0.00,,,0.00,Wunderground v.1.15,2013-03-09 00:15:00,
2013-03-08 19:21:00,38.6,30.4,30.41,NW,305,1.0,1.0,72,0.00,,,0.00,Wunderground v.1.15,2013-03-09 00:21:00,
2013-03-08 19:27:00,38.5,30.3,30.41,NW,307,0.0,1.0,72,0.00,,,0.00,Wunderground v.1.15,2013-03-09 00:27:00,
2013-03-08 19:32:00,38.3,30.4,30.41,NW,310,0.0,1.0,73,0.00,,,0.00,Wunderground v.1.15,2013-03-09 00:32:00,
2013-03-08 19:38:00,38.1,30.2,30.41,NNW,348,0.0,1.0,73,0.00,,,0.00,Wunderground v.1.15,2013-03-09 00:38:00,
2013-03-08 19:44:00,38.0,30.1,30.41,NW,326,0.0,0.0,73,0.00,,,0.00,Wunderground v.1.15,2013-03-09 00:44:00,
2013-03-08 19:50:00,37.6,30.1,30.41,NW,326,0.0,0.0,74,0.00,,,0.00,Wunderground v.1.15,2013-03-09 00:50:00,
2013-03-08 19:55:00,37.1,29.9,30.41,NW,326,0.0,0.0,75,0.00,,,0.00,Wunderground v.1.15,2013-03-09 00:55:00,
2013-03-08 20:00:00,36.9,30.0,30.41,North,1,0.0,0.0,76,0.00,,,0.00,Wunderground v.1.15,2013-03-09 01:00:00,
2013-03-08 20:06:00,37.0,29.8,30.41,NNW,348,0.0,2.0,75,0.00,,,0.00,Wunderground v.1.15,2013-03-09 01:06:00,
2013-03-08 20:12:00,36.8,29.9,30.42,NNW,347,0.0,0.0,76,0.00,,,0.00,Wunderground v.1.15,2013-03-09 01:12:00,
2013-03-08 20:18:00,36.3,29.8,30.42,NNW,347,0.0,0.0,77,0.00,,,0.00,Wunderground v.1.15,2013-03-09 01:18:00,
2013-03-08 20:24:00,36.3,29.8,30.42,NNW,344,0.0,0.0,77,0.00,,,0.00,Wunderground v.1.15,2013-03-09 01:24:00,
2013-03-08 20:30:00,36.0,29.8,30.42,NNW,344,0.0,0.0,78,0.00,,,0.00,Wunderground v.1.15,2013-03-09 01:30:00,
2013-03-08 20:36:00,35.6,29.4,30.42,NNW,344,0.0,1.0,78,0.00,,,0.00,Wunderground v.1.15,2013-03-09 01:36:00,
2013-03-08 20:42:00,35.2,29.3,30.43,NNW,344,0.0,0.0,79,0.00,,,0.00,Wunderground v.1.15,2013-03-09 01:42:00,
2013-03-08 20:47:00,34.9,29.4,30.43,NNW,344,0.0,0.0,80,0.00,,,0.00,Wunderground v.1.15,2013-03-09 01:47:00,
2013-03-08 20:53:00,34.8,29.3,30.43,NNW,344,0.0,0.0,80,0.00,,,0.00,Wunderground v.1.15,2013-03-09 01:53:00,
2013-03-08 20:59:00,34.9,29.4,30.42,NNW,344,0.0,0.0,80,0.00,,,0.00,Wunderground v.1.15,2013-03-09 01:59:00,
2013-03-08 21:04:00,35.0,29.5,30.42,North,5,0.0,0.0,80,0.00,,,0.00,Wunderground v.1.15,2013-03-09 02:04:00,
2013-03-08 21:10:00,35.5,29.6,30.42,North,7,0.0,1.0,79,0.00,,,0.00,Wunderground v.1.15,2013-03-09 02:10:00,
2013-03-08 21:16:00,35.8,29.6,30.42,NE,39,1.0,1.0,78,0.00,,,0.00,Wunderground v.1.15,2013-03-09 02:16:00,
2013-03-08 21:22:00,36.2,29.4,30.42,NNW,343,1.0,1.0,76,0.00,,,0.00,Wunderground v.1.15,2013-03-09 02:22:00,
2013-03-08 21:28:00,36.2,29.4,30.42,NW,326,1.0,1.0,76,0.00,,,0.00,Wunderground v.1.15,2013-03-09 02:28:00,
2013-03-08 21:34:00,35.8,29.3,30.42,NNE,12,0.0,1.0,77,0.00,,,0.00,Wunderground v.1.15,2013-03-09 02:34:00,
2013-03-08 21:39:00,36.1,28.9,30.41,NNE,14,1.0,1.0,75,0.00,,,0.00,Wunderground v.1.15,2013-03-09 02:39:00,
2013-03-08 21:45:00,36.6,29.1,30.42,NNE,16,1.0,3.0,74,0.00,,,0.00,Wunderground v.1.15,2013-03-09 02:45:00,
2013-03-08 21:51:00,36.9,29.1,30.42,North,351,2.0,2.0,73,0.00,,,0.00,Wunderground v.1.15,2013-03-09 02:51:00,
2013-03-08 21:57:00,37.2,29.0,30.42,NNE,24,2.0,4.0,72,0.00,,,0.00,Wunderground v.1.15,2013-03-09 02:57:00,
2013-03-08 22:02:00,37.2,29.0,30.41,NNE,25,2.0,3.0,72,0.00,,,0.00,Wunderground v.1.15,2013-03-09 03:02:00,
2013-03-08 22:08:00,37.2,29.0,30.41,NNE,25,2.0,3.0,72,0.00,,,0.00,Wunderground v.1.15,2013-03-09 03:08:00,
2013-03-08 22:14:00,37.1,28.9,30.40,NE,37,1.0,3.0,72,0.00,,,0.00,Wunderground v.1.15,2013-03-09 03:14:00,
2013-03-08 22:20:00,37.0,28.8,30.41,ENE,67,1.0,2.0,72,0.00,,,0.00,Wunderground v.1.15,2013-03-09 03:20:00,
2013-03-08 22:25:00,36.9,29.1,30.41,East,82,2.0,2.0,73,0.00,,,0.00,Wunderground v.1.15,2013-03-09 03:25:00,
2013-03-08 22:31:00,36.7,28.9,30.41,North,11,1.0,1.0,73,0.00,,,0.00,Wunderground v.1.15,2013-03-09 03:31:00,
2013-03-08 22:37:00,36.4,28.9,30.41,NNE,16,1.0,1.0,74,0.00,,,0.00,Wunderground v.1.15,2013-03-09 03:37:00,
2013-03-08 22:43:00,36.3,28.8,30.42,NNW,341,1.0,2.0,74,0.00,,,0.00,Wunderground v.1.15,2013-03-09 03:43:00,
2013-03-08 22:49:00,36.0,28.8,30.42,NNE,18,1.0,2.0,75,0.00,,,0.00,Wunderground v.1.15,2013-03-09 03:49:00,
2013-03-08 22:55:00,35.7,28.9,30.42,North,6,1.0,2.0,76,0.00,,,0.00,Wunderground v.1.15,2013-03-09 03:55:00,
2013-03-08 23:00:00,35.3,28.5,30.42,NW,316,0.0,0.0,76,0.00,,,0.00,Wunderground v.1.15,2013-03-09 04:00:00,
2013-03-08 23:06:00,34.6,28.4,30.42,NNW,327,0.0,0.0,78,0.00,,,0.00,Wunderground v.1.15,2013-03-09 04:06:00,
2013-03-08 23:12:00,34.2,28.1,30.42,NNW,336,0.0,0.0,78,0.00,,,0.00,Wunderground v.1.15,2013-03-09 04:12:00,
2013-03-08 23:18:00,33.7,28.2,30.42,NNW,336,0.0,0.0,80,0.00,,,0.00,Wunderground v.1.15,2013-03-09 04:18:00,
2013-03-08 23:24:00,33.2,27.7,30.41,NNW,336,0.0,0.0,80,0.00,,,0.00,Wunderground v.1.15,2013-03-09 04:24:00,
2013-03-08 23:29:00,32.5,27.6,30.41,NNW,336,0.0,0.0,82,0.00,,,0.00,Wunderground v.1.15,2013-03-09 04:29:00,
2013-03-08 23:35:00,31.9,27.3,30.41,NNW,335,0.0,0.0,83,0.00,,,0.00,Wunderground v.1.15,2013-03-09 04:35:00,
2013-03-08 23:41:00,31.8,27.5,30.41,NNW,336,0.0,0.0,84,0.00,,,0.00,Wunderground v.1.15,2013-03-09 04:41:00,
2013-03-08 23:47:00,31.9,27.6,30.41,NNW,336,0.0,0.0,84,0.00,,,0.00,Wunderground v.1.15,2013-03-09 04:47:00,
2013-03-08 23:52:00,32.0,27.7,30.41,NNW,336,0.0,0.0,84,0.00,,,0.00,Wunderground v.1.15,2013-03-09 04:52:00,
2013-03-08 23:58:00,31.9,27.3,30.41,NNW,341,0.0,0.0,83,0.00,,,0.00,Wunderground v.1.15,2013-03-09 04:58:00,